Location: Newark
(44.1667°N, 8.2500°E)
Time: 16:22:57
(UTC+00:00)

Explorer 7 - Visible Passes

Search period start: 11 December 2019 00:00
Search period end: 21 December 2019 00:00
Orbit: 485 x 680 km, 50.3° (Epoch: 11 December)

Date Brightness Start Highest point End Pass type
(mag) Time Alt. Az. Time Alt. Az. Time Alt. Az.
11 Dec 7.8 16:36:20 10° W 16:41:06 50° NNW 16:45:23 13° ENE visible
11 Dec 8.2 18:17:46 10° WNW 18:21:42 38° NNW 18:21:42 38° NNW visible
12 Dec 7.9 16:41:31 10° W 16:46:12 44° N 16:50:09 14° ENE visible
12 Dec 8.2 18:22:50 10° WNW 18:26:29 38° NNW 18:26:29 38° NNW visible
13 Dec 8.0 16:46:42 10° WNW 16:51:21 40° N 16:54:58 16° ENE visible
13 Dec 8.2 18:27:51 10° WNW 18:31:17 39° NNW 18:31:17 39° NNW visible
14 Dec 7.9 16:51:52 10° WNW 16:56:31 40° N 16:59:50 17° ENE visible
14 Dec 8.2 18:32:50 10° WNW 18:36:09 41° NW 18:36:09 41° NW visible
15 Dec 7.8 16:56:58 10° WNW 17:01:39 42° N 17:04:45 19° ENE visible
15 Dec 8.2 18:37:47 10° WNW 18:41:05 42° WNW 18:41:05 42° WNW visible
16 Dec 7.7 17:02:01 10° WNW 17:06:47 47° NNE 17:09:46 21° ENE visible
16 Dec 8.3 18:42:46 10° WNW 18:46:06 42° WNW 18:46:06 42° WNW visible
17 Dec 7.4 17:07:01 10° WNW 17:11:52 55° NNE 17:14:54 22° E visible
17 Dec 8.5 18:47:48 10° WNW 18:51:15 39° W 18:51:15 39° W visible
18 Dec 7.2 17:11:59 10° WNW 17:16:55 70° NNE 17:20:13 21° ESE visible
18 Dec 8.8 18:52:56 10° WNW 18:56:34 32° WSW 18:56:34 32° WSW visible
19 Dec 7.2 17:16:57 10° WNW 17:21:54 89° SSW 17:25:44 17° ESE visible
19 Dec 9.3 18:58:16 10° W 19:02:05 23° SW 19:02:06 23° SW visible
20 Dec 7.6 17:21:56 10° WNW 17:26:49 65° SW 17:31:33 10° SE visible
20 Dec 9.8 19:04:03 10° W 19:06:45 15° SW 19:07:57 14° SW visible
